Location: Nairn
(57.5833°N, 3.8667°W)
Time: 17:39:26
(UTC+00:00)

S-56A Canister/Altair - Pass Details

Date: 28 November 2020
Orbit: 633 x 2499 km, 38.9° (Epoch: 19 January)

Event Time Altitude Azimuth Distance (km) Brightness Sun altitude
Rises 21:53:23 0° 240° (WSW) 4,947 11.8 -46.9°
Enters shadow 21:56:34 - 231° (SW) 4,025 11.2 -47.2°
Reaches altitude 10° 21:58:16 10° 224° (SW) 3,563 - -47.3°
Maximum altitude 22:03:33 18° 186° (S) 2,567 - -47.8°
Drops below altitude 10° 22:07:48 10° 146° (SSE) 2,753 - -48.2°
Sets 22:10:55 0° 127° (SE) 3,450 - -48.5°
